Regional Weather Roundup
Issued by NWS

Home | Current Version | Previous Version | Graphics & Text | Print | Product List | Glossary On
Versions: 1 2 3 4 5 6 7 8 9 10 11 12 13 14 15 16 17 18 19 20 21 22 23 24 25 26 27 28 29 30 31 32 33 34 35 36 37 38 39 40 41 42 43 44 45 46 47 48 49 50
000
ASUS43 KOAX 281902
RWRNE

WEATHER ROUNDUP FOR NEBRASKA
NATIONAL WEATHER SERVICE OMAHA NE
200 PM CDT FRI AUG 28 2015

NOTES: SATELLITE DATA IS BEING USED TO AUGMENT CLOUD COVER ABOVE
       12000 FEET.
       "FAIR" INDICATES FEW OR NO CLOUDS BELOW 12,000 FEET WITH NO
       SIGNIFICANT WEATHER AND/OR OBSTRUCTIONS TO VISIBILITY.

  * THESE STATIONS DO NOT REPORT WEATHER SUCH AS RAIN...SNOW OR FOG.

NEZ001>004-019>022-054>056-282000-
NEBRASKA PANHANDLE

CITY           SKY/WX    TMP DP  RH WIND       PRES   REMARKS
SCOTTSBLUFF    SUNNY     86  51  29 NW13      30.11F
ALLIANCE       SUNNY     87  49  26 N15       30.09F
CHADRON        SUNNY     86  49  27 VRB3      30.06F
SIDNEY         SUNNY     87  47  24 N15G25    30.13F
$$

NEZ057>060-069>072-079>082-282000-
SOUTHWEST NEBRASKA

CITY           SKY/WX    TMP DP  RH WIND       PRES   REMARKS
NORTH PLATTE   MOSUNNY   80  63  55 NW8       30.01F
IMPERIAL       SUNNY     86  55  34 N12       30.04F
MCCOOK         MOSUNNY   85  62  46 N15G25    29.99F
$$

NEZ005>010-023>029-035>040-094-282000-
NORTH CENTRAL NEBRASKA

CITY           SKY/WX    TMP DP  RH WIND       PRES   REMARKS
VALENTINE      MOSUNNY   78  62  57 N7        30.02S
AINSWORTH      PTSUNNY   73  64  75 N9        30.03S
BROKEN BOW     CLOUDY    73  63  70 N13       30.00S
O`NEILL        CLOUDY    73  65  76 N7        29.98S
ORD            CLOUDY    74  62  66 N16       29.96F
$$

NEZ041-046>049-061>064-073>077-083>087-282000-
SOUTH CENTRAL NEBRASKA

CITY           SKY/WX    TMP DP  RH WIND       PRES   REMARKS
GRAND ISLAND   CLOUDY    76  62  62 N16       29.94F
AURORA         CLOUDY    74  66  76 NW14G22   29.93R
HASTINGS       CLOUDY    78  65  63 N17G23    29.94S
KEARNEY *      CLOUDY    73  63  68 N17       29.97S
YORK           CLOUDY    73  66  78 N12G21    29.91S
$$

NEZ011>018-030>034-042>045-282000-
NORTHEAST NEBRASKA

CITY           SKY/WX    TMP DP  RH WIND       PRES   REMARKS
NORFOLK        CLOUDY    69  63  81 N13       29.91R
ALBION         CLOUDY    71  62  72 N14G20    29.93S
BLAIR          CLOUDY    74  68  82 SW8       29.84R
COLUMBUS *     CLOUDY   N/A N/A N/A NW8G16    29.89S
FREMONT        CLOUDY    73  66  77 NW16      29.86S
TEKAMAH        CLOUDY    73  67  81 NW9       29.84R
$$

NEZ050>053-065>068-078-088>093-282000-
SOUTHEAST NEBRASKA

CITY           SKY/WX    TMP DP  RH WIND       PRES   REMARKS
LINCOLN        CLOUDY    80  67  64 NW14      29.86F
OMAHA EPPLEY   CLOUDY    77  70  79 S9        29.82F
BEATRICE       MOSUNNY   79  69  72 W6        29.87F
FALLS CITY     CLOUDY    82  69  64 S12       29.85F
NEBRASKA CITY  CLOUDY    76  68  74 W3        29.86S
PLATTSMOUTH    CLOUDY    77  68  74 SW8       29.84F
$$

NEZ044-045-051>053-067-282000-
OMAHA AREA

CITY           SKY/WX    TMP DP  RH WIND       PRES   REMARKS
OMAHA EPPLEY   CLOUDY    77  70  79 S9        29.82F
BLAIR          CLOUDY    74  68  82 SW8       29.84R
FREMONT        CLOUDY    73  66  77 NW16      29.86S
OFFUTT AFB     MOSUNNY   78  70  75 SW7       29.82F
PLATTSMOUTH    CLOUDY    77  68  74 SW8       29.84F
WAHOO          CLOUDY    73  68  86 NW8       29.86R
$$




USA.gov is the U.S. government's official web portal to all federal, state and local government web resources and services.